DMSP 5D-2 F11 DEB, 28343

Orbit data source: Space-Track

DMSP 5D-2 F11 DEB, 28343 is space debris in SSO originally from a launch on Thu, 28 Nov 1991 UTC launched from the Air Force Western Test Range (AFWTR). Debris objects in space refer to the collection of defunct objects orbiting the Earth. Examples of debris include non-operational satellites, rocket bodies, and fragments generated from explosions, collisions, or faulty payload assembly.

Loading next visibility...
Identifier
28343, 1991-082BG
Orbit
SSO
Country
Flag of USUS
Related business
Manufacturer
Unknown
Mission
Spacecraft
Bus & Motor
Unknown
Mass
Unknown
Launch date (UTC)
1991-11-28 (34 years ago)
Launch vehicle
Unknown
Launch site
Air Force Western Test Range (AFWTR)
Object type
Payload
Rocket body
Debris
Shape & HBR
Unknown shape, 0.1 m
Radar Cross Section
Small (<0.1 m²)

Expand to show TLE details & history
Last TLE update: 2 days ago

TLE from 2 days ago
0 DMSP 5D-2 F11 DEB
1 28343U 91082BG  25347.98481559  .00006540  00000-0  22268-2 0  9997
2 28343  98.8921  70.9220 0061024  19.7574 340.5955 14.35796688109115
Epoch: 2025-12-13T23:38Z
TLE epoch observation values (Epoch: 2025-12-13T23:38:08.066Z)
Latitude
-0.00003°
Longitude
-6.51584°
Altitude
734.215 km
Speed
7.509 km/s
True Right ascension
04h 43m 41s
True Declination
0° 00' 00"
Sunlit
Object was in full shadow at epoch
Visualization orbit readout
Latitude
Unknown
Longitude
Unknown
Altitude
Unknown
Speed
Unknown
Apparent Right ascension
Unknown
Apparent Declination
Unknown
Sunlit
N/A
Visualization observer readout
Local Sidereal Time
13:18:24
Azimuth
Unknown
Elevation
Unknown
Doppler factor
Unknown
Orbital elements
Apogee altitude
813.184 km
Perigee altitude
725.948 km
Semi-major axis
7,147.703 km
Eccentricity
0.0061
Inclination
98.8921°
RAAN
70.922°
Arg. of periapsis
19.7574°
True anomaly
340.36149°
Mean anomaly
340.5955°
Eccentric anomaly
340.47866°
Mean motion
3.59164 °/min
Orbital period
100.23 mins
BSTAR
0.0022268
Loading maneuver chart data...
Computing Atmospheric mass density...

Documentation

Showing up to 5 results
|